HULIANWANG DIGUI 12A

Last updated on Mon Oct 20 2025 00:02:08 GMT+0000 (Coordinated Universal Time)

1 65995U 25231A 25292.30920940 .00000050 00000+0 12374-3 0 9998 2 65995 50.0014 344.5930 0006602 263.7474 96.2679 14.05440833 462
UTC large
Height (km)
Speed (km/s)
/
Latitude / Longitude
Inclination (degrees)
Orbital Period (minutes)
Azimuth
Elevation
Range (km)
Doppler Factor

Next 0 passes for location: London (51.5072 / 0.1276)

Sorry there are no passes over London.